Regional Weather Roundup
Issued by NWS Grand Forks, ND

Home | Current Version | Previous Version | Graphics & Text | Print | Product List | Glossary On
Versions: 1 2 3 4 5 6 7 8 9 10 11 12 13 14 15 16 17 18 19 20 21 22 23 24 25 26 27 28 29 30 31 32 33 34 35 36 37 38 39 40 41 42 43 44 45 46 47 48 49 50
000
ASUS43 KFGF 040931
RWRFGF
PRAIRIE TO PINES  WEATHER ROUNDUP
NATIONAL WEATHER SERVICE EASTERN NORTH DAKOTA/GRAND FORKS ND
400 AM CDT TUE AUG 04 2015

 **SATELLITE DATA USED TO AUGMENT SKY COVER AT AUTOMATED STATIONS**
 *****  WEATHER ACROSS EASTERN NORTH DAKOTA  *****

CITY           SKY/WX    TMP DP  RH WIND       PRES   REMARKS
GRAND FORKS    CLEAR     48  46  93 NW5       29.95R
GRAND FRKS AFB CLEAR     51  48  90 NW6       29.96R
GRAND FRKS NWS   N/A     54 N/A N/A VRB5        N/A
DEVILS LAKE    CLEAR     55  46  71 CALM      29.97S
FARGO          CLEAR     53  48  83 N3        29.95S
WAHPETON ARPT  SUNNY     52  46  82 CALM      29.96S
$$

 ***** WEATHER ACROSS CENTRAL AND WESTERN NORTH DAKOTA  *****

CITY           SKY/WX    TMP DP  RH WIND       PRES   REMARKS
BISMARCK       CLEAR     53  49  86 CALM      29.98S
MINOT          CLEAR     52  48  86 NW5       29.98R
JAMESTOWN      FOG       51  49  92 CALM      29.97S VSB 1
MINOT AFB      CLEAR     49  47  93 CALM      29.97R
GARRISON         N/A     54  51  90 VRB3      29.98S
WILLISTON      CLEAR     61  50  67 CALM      29.96F
DICKINSON      PTCLDY    54  48  80 E9        29.96F
HETTINGER      MOCLDY    59  50  72 E5        29.97F
$$

 *****  OTHER AIRPORT OBSERVATIONS IN OUR AREA  *****

CITY           SKY/WX    TMP DP  RH WIND       PRES   REMARKS
WALHALLA       FAIR      50  50 100 MISG      29.99R
GRAFTON AIRPOR FAIR      54  52  94 N6        29.97R
VALLEY CITY AR FAIR      50  50 100 CALM      29.97S
CANDO          FAIR      48  46  93 NE5       30.00R
CAVALIER APRT  FAIR      54  50  87 NW5       29.98R
GWINNER          N/A     54  52  94 W7        29.96F
SHEYENNE NWR     N/A     49  48  95 CALM      29.95
ROLLA          FAIR      45  45 100 NW3       30.02R
 ***** THE ABOVE OBSERVATIONS ARE NON NWS ARE NOT QUALITY
       CONTROLLED AND MAY MIS-REPORT RAIN FOR SNOW...
$$

  *****  WEATHER ACROSS NORTHERN MINNESOTA  *****

CITY           SKY/WX    TMP DP  RH WIND       PRES   REMARKS
FLAG ISLAND    CLOUDY    57  55  94 NW7       29.93S
WARROAD        CLOUDY    54  50  87 NW6       29.96S
ROSEAU         PTCLDY    54  48  82 CALM      29.96S
HALLOCK        CLEAR     48  46  93 NE3       29.96S
THF RVR FALLS  CLEAR     55  48  76 CALM      29.96S
BAUDETTE       CLEAR     51  49  92 W6        29.93R
WASKISH        CLEAR     57  54  88 NW8       29.94S
CROOKSTON      CLEAR     50  48  93 NW3       29.96R
STEPHEN NDAWN    N/A     50  48  93 N3          N/A
GREENBUSH NDAW   N/A     48  48 100 NW3         N/A
$$
  *****  WEATHER ACROSS CENTRAL AND WEST MINNESOTA  *****

CITY           SKY/WX    TMP DP  RH WIND       PRES   REMARKS
FOSSTON        CLEAR     46  46 100 CALM      29.96S
BEMIDJI        CLEAR     48  46  90 W3        29.95S
PARK RAPIDS    CLEAR     51  47  86 CALM      29.96S
ELBOW LAKE     FAIR      56  54  94 CALM      29.96S
WADENA         CLEAR     46  45  93 CALM      29.95F
DETROIT LAKES  CLEAR     59  52  77 CALM      29.96F
MOORHEAD       CLEAR     50  46  87 CALM      29.96S
FERGUS FALLS   CLEAR     55  55 100 CALM      29.96S
MORRIS MN      CLEAR     52  52 100 CALM      29.95S
STAPLES        CLEAR     48  46  93 CALM      29.96S
$$
  *****  WEATHER ELSEWHERE ACROSS MINNESOTA  *****

CITY           SKY/WX    TMP DP  RH WIND       PRES   REMARKS
DULUTH         PTCLDY    56  50  80 NW8       29.92R
INTRNTL FALLS  MOCLDY    45  43  93 CALM      29.92R
ELY            PTCLDY    48  46  93 CALM      29.91S FOG
CLOQUET        CLEAR     54  48  82 W7        29.93R
WHEATON        FOG       50  48  93 CALM      29.97S VSB 3/4
BRAINERD       CLEAR     49  48  97 S3        29.96R
HIBBING        MOCLDY    47  46  97 CALM      29.93R
ALEXANDRIA     CLEAR     56  51  84 SW5       29.97F
SAINT CLOUD    CLEAR     50  49  96 CALM      29.96S
MINNEAPOLIS    CLEAR     61  54  77 W3        29.96S
$$

  *****  WEATHER ACROSS SOUTH DAKOTA  *****

CITY           SKY/WX    TMP DP  RH WIND       PRES   REMARKS
SIOUX FALLS    CLEAR     59  56  89 E5        29.96S
BROOKINGS      CLEAR     55  50  82 CALM      29.99S
WATERTOWN      CLEAR     55  50  83 CALM      29.97F
HURON          CLEAR     59  55  87 SE5       29.93F
SISSETON         N/A     49  46  90 CALM      29.95S
ABERDEEN       CLEAR     56  51  84 NE3       29.96S
MITCHELL       MOCLDY    60  57  89 SE5       29.94F
PIERRE         MOCLDY    67  56  67 SE9       29.92R
MOBRIDGE       PTCLDY    63  56  78 E10       29.91F
RAPID CITY     CLOUDY    66  58  75 E3        29.93F
$$

  *****  SOME WEATHER IN NEARBY STATES *****

CITY           SKY/WX    TMP DP  RH WIND       PRES   REMARKS
GLASGOW MT     CLEAR     67  47  48 E17       29.87F
GREAT FALLS MT MOCLDY    73  43  33 SW14      29.84R
CHEYENNE WY    MOCLDY    63  47  55 W12       30.07F
SCOTTSBLUFF NE PTCLDY    62  55  77 E6        29.95F
OMAHA NE       MOCLDY    70  61  73 SE3       29.94F
DES MOINES IA  MOCLDY    69  59  70 CALM      29.95R
DAVENPORT IA   CLEAR     55  53  93 CALM      29.95F
CHICAGO IL     CLEAR     63  55  75 W6        29.92R
EAU CLAIRE WI  CLEAR     57  53  86 W3        29.94R
LA CROSSE WI   CLEAR     58  55  90 N3        29.93S
$$

  *****  SOME NATIONAL WEATHER *****

CITY           SKY/WX    TMP DP  RH WIND       PRES   REMARKS
LA GUARDIA NY  CLOUDY    72  64  78 S5        29.83F
RALEIGH NC     MOCLDY    73  72  94 W3        29.99R
ATLANTA GA     MOCLDY    76  65  68 CALM      29.97R
NEW ORLEANS LA PTCLDY    80  74  81 CALM      29.94R
OKLAHOMA CITY  CLOUDY    75  69  81 SE5       29.92R
ALBUQUERQUE NM PTCLDY    72  49  44 W5        30.14S
SALT LAKE CITY PTCLDY    62  54  74 SE5       30.08S
LOS ANGELES CA PTCLDY    68  62  81 CALM      29.88S
BOISE ID       CLOUDY    72  52  49 NW17      30.02R
SEATTLE WA     PTCLDY    62  55  77 S3        29.99R
$$

*** WEATHER ACROSS MANITOBA...SASKATCHEWAN AND ONTARIO ***
                ***ONTARIO***

CITY           SKY/WX    TMP DP  RH WIND       PRES   REMARKS
GERALDTON      DRZL/FOG  52  50  93 NW7       29.81R VSB 1
THUNDER BAY    MOCLDY    54  54 100 SW5       29.86R
SIOUX LOOKOUT  CLOUDY    50  46  87 N5        29.92R
TORONTO        MOCLDY    64  54  68 NW8       29.83S
BIG TROUT LK   CLOUDY    48  48 100 N6        29.92R
PICKLE LAKE    NOT AVBL
DRYDEN         CLOUDY    52  48  87 N3        29.93R
KENORA         MOCLDY    52  50  93 N3        29.95R
$$
                *** MANITOBA***

CITY           SKY/WX    TMP DP  RH WIND       PRES   REMARKS
BRANDON        CLEAR     48  46  93 NE5       30.01R
DAUPHIN        CLEAR     45  45 100 W6        30.01S
ISLAND LAKE    MOCLDY    50  48  93 CALM      29.98R
PILOT MOUND      N/A     48  46  93 N3          N/A
THE PAS        CLEAR     48  46  93 CALM      30.02R
THOMPSON       LGT RAIN  54  52  94 N3        29.99S
WINNIPEG       CLEAR     46  46 100 N6        30.00R
LYNN LAKE      CLOUDY    57  54  88 E5        30.03R
CHURCHILL      DRIZZLE   46  45  93 NE14      29.99R FOG
GILLAM         LGT RAIN  52  50  93 N7        29.97S
$$
                ***SASKATCHEWAN***

CITY           SKY/WX    TMP DP  RH WIND       PRES   REMARKS
ESTEVAN        PTCLDY    54  50  87 E8        29.98S
KINDERSLEY     MOCLDY    61  54  77 E18G25    29.86F
LLOYDMINSTER   CLOUDY    64  54  68 SE15G22   29.86F
PRINCE ALBERT  PTCLDY    54  52  94 E6        29.96F
REGINA         PTCLDY    59  50  72 E12       29.98F
YORKTON        CLEAR     48  46  93 CALM      30.01R
N. BATTLEFORD  MOCLDY    61  54  77 E12       29.94R
LA RONGE       MOCLDY    59  50  72 E5        29.99S
SASKATOON      PTCLDY    63  52  67 SE9       29.96F
SWIFT CURRENT  CLEAR     61  52  72 SE12G17   29.90S
$$
NOTE: THESE ARE AUTOMATED STATIONS WITH LIMITED QUALITY CONTROL
      "FAIR" INDICATES FEW OR NO CLOUDS BELOW 12,000 FEET WITH NO
      SIGNIFICANT WEATHER AND/OR OBSTRUCTIONS TO VISIBILITY.
      SKY/WX - SKY CONDITION AND SIGNIFICANT WEATHER.
      TMP - AIR TEMPERATURE.    DP   - DEWPOINT TEMPERATURE.
      RH  - RELATIVE HUMIDITY.  PRES - PRESSURE.
      HX  - HEAT INDEX.         WCI  - WIND CHILL INDEX.
$


USA.gov is the U.S. government's official web portal to all federal, state and local government web resources and services.